FW2691 Weather Reports


time (UTC)temp
C
wind
direction
speed
KPH
gust
KPH
rain 1hr
cm
rain 24hr
cm
rain mn
cm
humidity
%
barometer
mb
20260506103805 16 142 6.4 14.5 0.00 0.89 0.03 74 1008.4
20260506103304 16 191 4.8 14.5 0.00 0.89 0.03 74 1008.4
20260506102804 16 191 4.8 14.5 0.00 0.89 0.03 74 1008.3
20260506102305 15 203 4.8 14.5 0.00 0.89 0.03 75 1008.4
20260506101801 15 166 8.0 14.5 0.00 0.89 0.03 76 1008.3
20260506101302 15 187 4.8 9.7 0.00 0.89 0.03 77 1008.4
20260506100028 15 201 4.8 14.5 0.00 0.89 0.03 75 1008.3
20260506095255 15 162 8.0 14.5 0.00 0.89 0.03 76 1008.4
20260506094753 15 202 4.8 14.5 0.00 0.89 0.03 75 1008.4
20260506094251 15 184 6.4 14.5 0.00 0.89 0.03 75 1008.3
20260506093752 15 192 8.0 16.1 0.00 0.89 0.03 74 1008.4
20260506093249 15 216 6.4 16.1 0.00 0.89 0.03 75 1008.3
20260506092748 15 206 4.8 12.9 0.00 0.89 0.03 74 1008.3
20260506092247 15 261 1.6 12.9 0.00 0.89 0.03 76 1008.2
20260506091743 15 189 3.2 8.0 0.00 0.89 0.03 77 1008.3
20260506090242 14 201 3.2 6.4 0.00 0.89 0.03 79 1008.2
20260506085240 14 206 1.6 6.4 0.00 0.89 0.03 79 1008.2
20260506084738 13 201 3.2 6.4 0.00 0.89 0.03 80 1008.3
20260506084236 13 141 1.6 6.4 0.00 0.89 0.03 81 1008.3
20260506084000 13 216 4.8 12.9 0.00 0.89 0.03 80 1008.3
20260506083233 13 211 4.8 12.9 0.00 0.89 0.03 82 1008.3
20260506082733 13 200 3.2 9.7 0.00 0.89 0.03 81 1008.4
20260506082233 13 206 3.2 12.9 0.00 0.89 0.03 82 1008.4
20260506080727 13 166 3.2 9.7 0.00 0.89 0.03 82 1008.2
20260506080226 13 195 6.4 9.7 0.00 0.89 0.03 81 1008.2
20260506073447 12 239 6.4 16.1 0.00 0.89 0.03 82 1007.9
20260506072715 12 206 3.2 11.3 0.00 0.89 0.03 83 1007.9
20260506072218 12 216 6.4 11.3 0.00 0.89 0.03 83 1007.9
20260506071946 12 200 6.4 9.7 0.00 0.89 0.03 83 1007.8
20260506071213 12 178 3.2 14.5 0.00 0.89 0.03 83 1007.8
20260506070708 12 243 6.4 14.5 0.00 0.89 0.03 83 1007.8
20260506070209 12 220 3.2 14.5 0.00 0.89 0.03 83 1007.9
20260506062157 11 216 4.8 9.7 0.00 0.89 0.03 88 1008.0
20260506061955 11 198 3.2 6.4 0.00 0.89 0.03 88 1008.0
20260506061152 11 231 4.8 8.0 0.00 0.89 0.03 88 1008.0
20260506060654 11 195 4.8 8.0 0.00 0.89 0.03 88 1008.1
20260506060151 11 178 1.6 4.8 0.00 0.89 0.03 88 1008.2
20260506051133 11 263 6.4 17.7 0.00 0.89 0.03 89 1008.2
20260506050631 11 220 11.3 17.7 0.00 0.89 0.03 89 1008.1
20260506050129 11 258 6.4 14.5 0.00 0.89 0.03 90 1008.1
20260506045126 11 233 6.4 16.1 0.00 0.89 0.03 91 1008.1
20260506044626 11 236 6.4 14.5 0.03 0.89 0.03 91 1008.0
20260506044125 11 247 8.0 17.7 0.03 0.89 0.03 91 1008.0
20260506043852 11 223 11.3 17.7 0.03 0.89 0.03 91 1007.9
20260506043124 10 244 6.4 11.3 0.03 0.89 0.03 92 1007.8
20260506042621 10 243 8.0 16.1 0.03 0.89 0.03 92 1007.8
20260506042117 10 226 6.4 16.1 0.03 0.89 0.03 92 1007.7
20260506041617 10 234 6.4 19.3 0.03 0.89 0.03 92 1007.8
20260506041338 10 239 8.0 19.3 0.03 0.89 0.03 92 1007.6
20260506040611 10 216 6.4 16.1 0.03 0.89 0.03 92 1007.4
20260506040113 11 251 9.7 12.9 0.03 0.89 0.03 92 1007.6
20260506035612 10 228 4.8 12.9 0.03 0.89 0.03 92 1007.5
20260506035109 10 211 3.2 12.9 0.03 0.89 0.03 92 1007.6
20260506034603 11 202 3.2 8.0 0.00 0.86 0.00 92 1007.6
20260506034058 10 216 3.2 8.0 0.00 0.86 0.00 92 1007.5
20260506033558 10 174 3.2 8.0 0.00 0.86 0.00 92 1007.5
20260506033055 10 206 1.6 8.0 0.00 0.86 0.00 92 1007.6
20260506032551 10 239 3.2 8.0 0.00 0.86 0.00 92 1007.8
20260506031551 10 226 1.6 11.3 0.00 0.86 0.00 91 1007.8
20260506031048 10 245 4.8 11.3 0.00 0.86 0.00 91 1007.8
20260506030548 10 220 3.2 11.3 0.00 0.86 0.00 91 1007.7
20260506030055 10 200 3.2 12.9 0.00 0.86 0.00 91 1007.6
20260506025541 10 197 4.8 12.9 0.00 0.86 0.00 91 1007.7
20260506025046 10 188 4.8 12.9 0.00 0.86 0.00 91 1007.7
20260506024542 10 233 4.8 9.7 0.00 0.86 0.00 91 1007.7
20260506024039 10 216 4.8 9.7 0.00 0.86 0.00 91 1007.7
20260506023812 10 224 3.2 11.3 0.00 0.86 0.00 91 1007.7
20260506023037 10 203 3.2 11.3 0.00 0.86 0.00 91 1007.7
20260506022036 10 182 3.2 6.4 0.00 0.86 0.00 91 1007.7
20260506021532 10 211 3.2 12.9 0.00 0.86 0.00 91 1007.7
20260506021036 10 247 4.8 12.9 0.00 0.86 0.00 91 1007.8
20260506020529 10 211 1.6 14.5 0.00 0.86 0.00 91 1007.9
20260506020024 10 216 4.8 14.5 0.00 0.86 0.00 92 1007.8
20260506015527 10 202 6.4 12.9 0.00 0.86 0.00 92 1007.8
20260506015024 10 180 4.8 12.9 0.00 0.86 0.00 92 1007.8
20260506014751 10 211 3.2 11.3 0.00 0.86 0.00 92 1007.8
20260506014249 10 206 4.8 11.3 0.00 0.86 0.00 92 1007.8
20260506013018 10 211 3.2 12.9 0.00 0.86 0.00 92 1007.8
20260506012518 10 216 3.2 12.9 0.00 0.86 0.00 92 1007.8
20260506012015 11 200 3.2 12.9 0.00 0.86 0.00 92 1007.8
20260506011738 11 216 3.2 12.9 0.00 0.86 0.00 92 1007.9
20260506011014 11 216 6.4 12.9 0.00 0.86 0.00 91 1007.9
20260506010750 11 211 3.2 8.0 0.00 0.86 0.00 91 1008.0
20260506010013 11 211 0.0 6.4 0.00 0.86 0.00 91 1008.0
20260506005509 11 189 3.2 11.3 0.00 0.86 0.00 91 1008.0
20260506005011 11 216 3.2 11.3 0.00 0.86 0.00 91 1008.1
20260506004729 10 241 3.2 6.4 0.00 0.86 0.00 91 1008.1
20260506004006 10 243 3.2 6.4 0.00 0.86 0.00 91 1008.0
20260506003505 10 216 3.2 6.4 0.00 0.86 0.00 91 1008.0
20260506003006 10 225 3.2 12.9 0.00 0.86 0.00 91 1008.1
20260506002501 11 237 6.4 12.9 0.00 0.86 0.00 92 1008.2
20260506001959 11 216 6.4 16.1 0.00 0.86 0.00 92 1008.3
20260506001459 11 237 8.0 16.1 0.00 0.86 0.00 92 1008.3
20260506001227 11 216 6.4 14.5 0.00 0.86 0.00 92 1008.3
20260506000456 11 216 3.2 6.4 0.00 0.86 0.00 92 1008.3
20260505235956 11 225 1.6 4.8 0.00 0.86 0.00 92 1008.3
20260505235457 11 229 1.6 8.0 0.00 0.86 0.00 92 1008.3
20260505234951 11 222 1.6 9.7 0.00 0.86 0.00 92 1008.4
20260505234453 11 237 6.4 9.7 0.00 0.86 0.00 92 1008.4
20260505233948 11 251 3.2 8.0 0.00 0.86 0.00 92 1008.5
20260505233452 11 233 4.8 6.4 0.00 0.86 0.00 92 1008.5
20260505233220 11 239 3.2 8.0 0.00 0.86 0.00 93 1008.5
20260505232446 10 247 3.2 8.0 0.00 0.86 0.00 93 1008.5
20260505231945 10 220 1.6 8.0 0.00 0.86 0.00 93 1008.4
20260505231444 10 233 3.2 8.0 0.00 0.86 0.00 93 1008.4
20260505230940 10 240 1.6 6.4 0.00 0.86 0.00 93 1008.3
20260505230444 10 266 3.2 6.4 0.00 0.86 0.00 93 1008.4
20260505225942 10 259 1.6 4.8 0.00 0.86 0.00 93 1008.4
20260505225439 10 216 0.0 6.4 0.00 0.86 0.00 93 1008.3
20260505224939 10 216 1.6 6.4 0.00 0.86 0.00 93 1008.4
20260505224438 10 216 0.0 4.8 0.00 0.86 0.00 93 1008.3
20260505223937 10 216 0.0 3.2 0.00 0.86 0.00 93 1008.3
20260505223701 10 216 0.0 1.6 0.00 0.86 0.00 93 1008.3
20260505222933 10 216 0.0 1.6 0.00 0.86 0.00 93 1008.4
20260505222432 10 216 0.0 1.6 0.00 0.86 0.00 93 1008.4
20260505220421 10 216 0.0 1.6 0.00 0.86 0.00 93 1008.4
20260505215919 10 216 0.0 1.6 0.00 0.86 0.86 93 1008.5
20260505215700 10 216 0.0 3.2 0.00 0.86 0.86 93 1008.5
20260505215156 10 216 0.0 3.2 0.00 0.86 0.86 93 1008.4
20260505214411 10 216 0.0 3.2 0.00 0.86 0.86 93 1008.5
20260505213912 10 216 0.0 4.8 0.00 0.86 0.86 93 1008.5
20260505212912 10 216 1.6 4.8 0.00 0.86 0.86 93 1008.6
20260505212406 10 230 3.2 4.8 0.00 0.86 0.86 93 1008.7
20260505211906 10 320 0.0 3.2 0.00 0.86 0.86 93 1008.5
20260505211404 10 320 0.0 3.2 0.00 0.86 0.86 93 1008.7
20260505211131 10 320 0.0 0.0 0.00 0.86 0.86 93 1008.8
20260505210355 10 320 0.0 1.6 0.00 0.86 0.86 93 1008.7
20260505205857 10 320 0.0 1.6 0.00 0.86 0.86 92 1008.6
20260505203851 10 320 0.0 1.6 0.00 0.86 0.86 92 1008.6
20260505203350 10 320 0.0 1.6 0.00 0.86 0.86 92 1008.6
20260505202847 10 320 0.0 1.6 0.00 0.86 0.86 92 1008.5
20260505202342 11 320 0.0 1.6 0.00 0.86 0.86 91 1008.6
20260505201846 11 320 0.0 1.6 0.00 0.86 0.86 92 1008.5
20260505201339 11 320 0.0 0.0 0.00 0.86 0.86 91 1008.5
20260505200835 11 320 0.0 0.0 0.00 0.86 0.86 91 1008.5
20260505200340 11 320 0.0 1.6 0.00 0.86 0.86 91 1008.4
20260505200109 11 320 0.0 1.6 0.00 0.86 0.86 91 1008.2
20260505194833 11 320 0.0 3.2 0.00 0.86 0.86 90 1008.1
20260505194332 11 320 0.0 3.2 0.00 0.86 0.86 90 1008.0
20260505193832 11 314 0.0 4.8 0.00 0.86 0.86 90 1008.0
20260505193328 11 274 1.6 6.4 0.00 0.86 0.86 90 1007.9
20260505192828 11 307 3.2 14.5 0.03 0.86 0.86 90 1007.9
20260505192329 11 329 1.6 14.5 0.03 0.86 0.86 90 1007.8
20260505191326 11 322 4.8 16.1 0.05 0.86 0.86 90 1007.8
20260505190822 11 327 6.4 16.1 0.08 0.86 0.86 90 1007.9
20260505190320 11 330 8.0 16.1 0.13 0.86 0.86 90 1007.9
20260505185817 11 293 9.7 16.1 0.20 0.86 0.86 89 1007.8
20260505185319 11 311 6.4 14.5 0.25 0.86 0.86 89 1007.9
20260505184816 11 321 8.0 14.5 0.43 0.86 0.86 89 1008.0
20260505184315 11 318 4.8 12.9 0.61 0.86 0.86 89 1008.2
20260505184046 11 329 1.6 6.4 0.79 0.86 0.86 89 1008.3
20260505183313 11 334 0.0 4.8 0.86 0.86 0.86 89 1008.5
20260505182810 11 334 1.6 4.8 0.84 0.84 0.84 89 1008.6
20260505182537 11 34 0.0 6.4 0.84 0.84 0.84 89 1008.6
20260505181809 11 34 1.6 16.1 0.84 0.84 0.84 88 1008.4
20260505181305 11 249 4.8 19.3 0.79 0.79 0.79 88 1008.4
20260505180806 12 276 9.7 20.9 0.79 0.79 0.79 87 1008.3
20260505180307 12 245 12.9 30.6 0.74 0.74 0.74 87 1008.4
20260505175802 12 286 14.5 30.6 0.66 0.66 0.69 86 1008.4
20260505175301 12 290 14.5 30.6 0.61 0.61 0.61 85 1008.1
20260505175020 12 293 19.3 30.6 0.43 0.43 0.43 83 1008.1
20260505174258 13 263 16.1 33.8 0.25 0.25 0.25 81 1008.2
20260505173756 15 262 16.1 33.8 0.05 0.05 0.05 77 1008.4
20260505173257 16 252 11.3 32.2 0.00 0.00 0.00 71 1008.3
20260505172536 17 291 0.0 6.4 0.00 0.00 0.00 67 1007.6
20260505171751 17 324 0.0 9.7 0.00 0.00 0.00 67 1007.1
20260505171251 17 324 1.6 11.3 0.00 0.00 0.00 67 1007.0
20260505170749 17 358 6.4 11.3 0.00 0.00 0.00 67 1007.0
20260505170249 17 12 1.6 8.0 0.00 0.00 0.00 67 1007.0
20260505165747 17 31 0.0 9.7 0.00 0.00 0.00 67 1007.0
20260505165515 17 32 3.2 9.7 0.00 0.00 0.00 66 1007.0
20260505164745 17 17 3.2 9.7 0.00 0.00 0.00 66 1007.0
20260505164241 17 44 3.2 12.9 0.00 0.00 0.00 67 1007.1
20260505163744 17 20 4.8 12.9 0.00 0.00 0.00 67 1007.1
20260505162242 18 29 8.0 17.7 0.00 0.00 0.00 66 1007.3
20260505161733 18 28 8.0 20.9 0.00 0.00 0.00 66 1007.3
20260505161235 18 24 9.7 22.5 0.00 0.00 0.00 66 1007.4
20260505161017 18 43 9.7 22.5 0.00 0.00 0.00 67 1007.4
20260505160516 18 39 9.7 19.3 0.00 0.00 0.00 66 1007.4
20260505153227 18 14 3.2 12.9 0.00 0.00 0.00 67 1007.6
20260505152725 18 19 4.8 12.9 0.00 0.00 0.00 67 1007.6
20260505152223 18 353 4.8 16.1 0.00 0.00 0.00 68 1007.7
20260505152014 18 45 4.8 16.1 0.00 0.00 0.00 68 1007.7
20260505151217 18 326 4.8 16.1 0.00 0.00 0.00 68 1007.8
20260505150718 18 30 4.8 22.5 0.00 0.00 0.00 67 1007.8
20260505150459 18 28 6.4 22.5 0.00 0.00 0.00 66 1007.8
20260505140200 19 336 3.2 19.3 0.00 0.00 0.00 62 1008.0
20260505130153 20 317 4.8 19.3 0.00 0.00 0.00 58 1008.4
20260505124640 20 7 6.4 14.5 0.00 0.00 0.00 58 1008.4
20260505124134 21 334 3.2 17.7 0.00 0.00 0.00 58 1008.4
20260505123633 21 325 4.8 19.3 0.00 0.00 0.00 58 1008.5
20260505123132 20 319 6.4 19.3 0.00 0.00 0.00 58 1008.5
20260505122632 20 322 8.0 17.7 0.00 0.00 0.00 58 1008.5
20260505122130 20 321 3.2 22.5 0.00 0.00 0.00 59 1008.5
20260505121628 20 337 6.4 22.5 0.00 0.00 0.00 59 1008.5
20260505120626 20 315 6.4 14.5 0.00 0.00 0.00 59 1008.6
20260505120119 20 330 3.2 20.9 0.00 0.00 0.00 59 1008.6
20260505115619 21 328 4.8 20.9 0.00 0.00 0.00 58 1008.7
20260505115116 21 317 9.7 22.5 0.00 0.00 0.00 57 1008.6
20260505114850 22 323 11.3 22.5 0.00 0.00 0.00 57 1008.7
20260505114113 21 294 11.3 20.9 0.00 0.00 0.00 56 1008.8
20260505113612 21 322 4.8 12.9 0.00 0.00 0.00 55 1008.8
20260505113111 21 59 6.4 11.3 0.00 0.00 0.00 52 1008.9
20260505112609 21 55 1.6 12.9 0.00 0.00 0.00 52 1008.8
20260505112117 20 54 6.4 12.9 0.00 0.00 0.00 54 1008.9
20260505111836 20 1 1.6 8.0 0.00 0.00 0.00 56 1008.9
20260505111102 20 39 1.6 11.3 0.00 0.00 0.00 58 1008.9
20260505110602 20 29 4.8 16.1 0.00 0.00 0.00 58 1009.0